Location: Unspecified
(49.2170°N, 0.0000°E)
Time: 17:46:51
(UTC+00:00)

Transit 4A - Pass Details

Date: 25 June 2019
Orbit: 862 x 982 km, 66.8° (Epoch: 17 July)

Event Time Altitude Azimuth Distance (km) Brightness Sun altitude
Rises 13:07:03 0° 316° (NW) 3,696 11.0 61.2°
Reaches altitude 10° 13:10:28 10° 334° (NNW) 2,746 10.3 60.9°
Maximum altitude 13:15:00 20° 19° (NNE) 2,122 9.7 60.5°
Drops below altitude 10° 13:19:30 10° 64° (ENE) 2,720 10.2 60.1°
Sets 13:22:52 0° 81° (E) 3,648 10.8 59.7°
